[[{"header":{"parameterUnit":"m.s-1","parameterCategory":1,"la1":30.2991,"la2":30.254,"lo1":-89.0895,"lo2":-89.0444,"dy":0.0017,"dx":0.0017,"nx":28,"ny":28,"refTime":"2023-09-30T09:00:00:Z","depth":0,"parameterNumber":2,"parameterNumberName":"U-component_of_WINDS"},"data":[0,0,0,0,0,0,0,0,0,0,0,0,0,0,0,0,0,0,0,0,0,0,0,0,0,0,0,0,0,0,0,0,0,0,0,0,0,0,0,0,0,0,0,0,0,0,0,0,0,0,0,0,0,0,0,0,0,0,-5.8598,-5.8598,0,-5.8601,-5.8601,-5.8601,-5.8381,-5.8375,-5.8369,-5.8364,-5.8371,-5.8376,-5.8382,0,0,0,0,0,0,0,0,0,0,0,0,0,-5.8403,-5.8407,-5.8598,-5.8598,-5.8598,-5.8601,-5.8601,-5.8601,-5.8382,-5.8375,-5.8368,-5.8361,-5.8369,-5.8375,-5.8382,0,0,0,0,0,0,0,0,0,0,0,0,0,-5.8455,-5.8409,-5.8598,-5.8489,-5.8479,-5.8601,-5.8601,-5.8601,-5.8384,-5.8375,-5.8366,-5.8358,-5.8367,-5.8375,-5.8383,-5.8611,0,0,-5.8409,-5.8412,0,0,0,0,0,0,0,0,-5.8452,-5.8463,-5.8505,-5.8497,-5.8486,-5.8482,-5.8535,-5.8605,-5.8386,-5.842,-5.8364,-5.8353,-5.8415,-5.8419,-5.8439,-5.8611,-5.8611,-5.841,-5.8415,-5.8418,-5.8421,0,0,0,0,0,0,0,-5.8449,-5.8461,-5.8599,-5.8506,-5.8494,-5.844,-5.8438,-5.8547,-5.8467,-5.8416,-5.84,-5.8404,-5.8408,-5.8431,-5.8437,-5.8611,-5.8409,-5.8417,-5.8422,-5.8425,-5.8967,-5.8976,0,0,0,0,0,0,-5.846,-5.846,-5.8599,-5.8599,-5.8447,-5.8451,-5.8448,-5.8492,-5.8465,-5.8452,-5.8411,-5.8393,-5.8421,-5.8428,-5.8437,-5.8698,-5.8418,-5.8426,-5.8431,-5.8958,-5.8969,-5.8979,0,0,0,0,0,0,-5.8457,-5.8475,-5.8599,-5.8525,-5.8537,-5.8463,-5.8514,-5.8497,-5.8519,-5.8461,-5.8446,-5.8449,-5.8414,-5.8425,-5.8568,-5.8696,-5.843,-5.8438,-5.8947,-5.8961,-5.8974,-5.9226,0,0,0,0,0,0,-5.8452,-5.8475,-5.856,-5.8529,-5.8542,-5.8731,-5.8522,-5.8503,-5.8534,-5.8511,-5.8493,-5.8481,-5.8408,-5.8557,-5.8577,-5.8703,-5.8444,-5.8935,-5.8953,-5.897,-5.9206,-5.9247,-5.9282,0,0,0,0,0,-5.8446,-5.8633,-5.8566,-5.8584,-5.8647,-5.8739,-5.8746,-5.8657,-5.8546,-5.8631,-5.8593,-5.8482,-5.8679,-5.8573,-5.8594,-5.8724,-5.8926,-5.8948,-5.8968,-5.9189,-5.9239,-5.9281,0,0,0,0,0,0,-5.8683,-5.8627,-5.8552,-5.8734,-5.8743,-5.8701,-5.8806,-5.8714,-5.8755,-5.8732,-5.8621,-5.8618,-5.8779,-5.8766,-5.8649,-5.8941,-5.8783,-5.8809,-5.8944,-5.8991,-5.9028,-5.9027,-5.8451,0,0,0,0,0,-5.8756,-5.8835,-5.8781,-5.8947,-5.8955,-5.8881,-5.8917,-5.8848,-5.8853,-5.8856,-5.8828,-5.8838,-5.8901,-5.8946,-5.9001,-5.9204,-5.9195,-5.9304,-5.9342,-5.9373,-5.9397,-5.95,-5.9547,-5.9048,-5.9048,-5.9048,0,0,-5.8909,-5.8888,-5.8944,-5.8994,-5.8993,-5.9076,-5.8885,-5.8982,-5.9043,-5.8871,-5.9003,-5.8984,-5.8987,-5.916,-5.9235,-5.9154,-5.9533,-5.94,-5.9426,-5.9432,-5.9526,-5.9574,-5.9616,-5.9062,-5.906,-5.9057,0,0,-5.9229,-5.9222,-5.9357,-5.9359,-5.9358,-5.9307,-5.934,-5.9313,-5.9292,-5.9423,-5.9295,-5.9366,-5.9479,-5.9485,-5.9504,-5.9825,-5.9724,-5.9846,-6.0044,-6.0147,-6.0186,-6.022,-6.0332,-6.0374,-5.987,-5.9871,-5.9871,0,-5.9419,-5.9538,-5.9439,-5.9544,-5.9569,-5.9415,-5.9551,-5.9558,-5.9577,-5.9598,-5.9507,-5.9643,-5.9635,-5.9806,-5.9884,-5.9905,-5.9938,-5.9847,-6.0188,-6.0221,-6.0252,-6.0357,-6.04,-5.9885,-5.9884,-5.9882,-5.9881,0,-5.977,-5.9856,-5.9966,-5.9985,-6.0022,-6.0143,-6.0062,-6.0112,-6.0039,-5.9998,-6.0132,-6.0117,-6.0165,-6.0201,-6.0133,-6.0363,-6.0312,-6.0207,-6.0045,-6.0316,-6.0413,-6.0453,-5.9907,-5.9901,-5.9897,-5.9893,0,0,-6.024,-6.0201,-6.0243,-6.0248,-6.0236,-6.03,-6.0413,-6.0458,-6.0503,-6.0521,-6.0612,-6.071,-6.0611,-6.0632,-6.0563,-6.0654,-6.0905,-6.0536,-6.0534,-6.0603,-6.1155,-6.1233,-6.1281,-6.0839,-6.0846,-6.0852,-6.1154,0,-6.0547,-6.0736,-6.0649,-6.0848,-6.0924,-6.0779,-6.0877,-6.088,-6.0845,-6.0904,-6.0865,-6.0935,-6.0801,-6.0812,-6.0895,-6.0857,-6.1014,-6.0835,-6.0921,-6.0926,-6.0923,-6.1332,-6.1415,-6.17,-6.1192,-6.1198,-6.1203,0,-6.0931,-6.0963,-6.1169,-6.1139,-6.1168,-6.1258,-6.1291,-6.1351,-6.1351,-6.1318,-6.1342,-6.1251,-6.1359,-6.12,-6.1347,-6.1227,-6.1257,-6.1244,-6.1253,-6.1256,-6.1079,-6.1344,-6.1789,-6.1832,-6.1262,-6.1257,-6.1253,0,-6.1249,-6.1344,-6.1477,-6.1487,-6.1458,-6.1524,-6.1515,-6.1506,-6.1538,-6.1569,-6.1588,-6.1632,-6.1655,-6.1691,-6.1615,-6.1506,-6.1772,-6.1607,-6.1747,-6.1749,-6.1807,-6.1804,-6.2262,-6.1833,-6.1832,-6.1831,-6.183,0,-6.16,-6.1731,-6.1619,-6.1702,-6.1844,-6.1743,-6.1887,-6.1862,-6.1856,-6.1931,-6.1809,-6.1883,-6.1778,-6.1841,-6.1783,-6.1912,-6.1924,-6.19,-6.1883,-6.191,-6.1913,-6.1926,-6.1904,-6.1842,-6.184,-6.1838,-6.1836,0,-6.1979,-6.1909,-6.2045,-6.2005,-6.1998,-6.2105,-6.207,-6.2145,-6.2101,-6.2197,-6.2214,-6.2145,-6.2212,-6.214,-6.2204,-6.2164,-6.2337,-6.2292,-6.2337,-6.2323,-6.2465,-6.2452,-6.2946,-6.3004,-6.2541,-6.2546,-6.2549,0,-6.2206,-6.2302,-6.2272,-6.2313,-6.231,-6.2378,-6.2409,-6.2315,-6.2352,-6.2359,-6.2433,-6.249,-6.253,-6.2645,-6.2601,-6.2648,-6.2601,-6.2771,-6.2608,-6.2631,-6.2601,-6.2595,-6.2603,-6.2804,-6.281,-6.2814,-6.2818,0,-6.2615,-6.2576,-6.2625,-6.2663,-6.2703,-6.2728,-6.2745,-6.2785,-6.2686,-6.2736,-6.2802,-6.2833,-6.2896,-6.2954,-6.2989,-6.2979,-6.2883,-6.287,-6.2904,-6.2931,-6.2952,-6.294,-6.2424,-6.2859,-6.2854,-6.2851,-6.2849,-6.2848,-6.2922,-6.3,-6.299,-6.3049,-6.3051,-6.3068,-6.3135,-6.3098,-6.3152,-6.3194,-6.3136,-6.3218,-6.3214,-6.325,-6.3252,-6.3315,-6.3243,-6.3293,-6.3306,-6.3319,-6.3339,-6.2945,-6.3321,-6.332,-6.3319,-6.3318,-6.3317,0,-6.3323,-6.3309,-6.3364,-6.3388,-6.3435,-6.3339,-6.3351,-6.3396,-6.3469,-6.3474,-6.3515,-6.3591,-6.3646,-6.3606,-6.3652,-6.3711,-6.3667,-6.3726,-6.3719,-6.3718,-6.3402,-6.3366,-6.376,-6.376,-6.376,-6.3759,-6.3759,-6.3759,-6.3536,-6.3662,-6.3621,-6.3746,-6.3731,-6.3809,-6.3824,-6.384,-6.3842,-6.3932,-6.3976,-6.3949,-6.3935,-6.3979,-6.4025,-6.4012,-6.4034,-6.4108,-6.4079,-6.3784,-6.3741,-6.3699,-6.3664,-6.4114,-6.4114,-6.4388,-6.4391,-6.4393]},{"header":{"parameterUnit":"m.s-1","parameterCategory":1,"la1":30.2991,"la2":30.254,"lo1":-89.0895,"lo2":-89.0444,"dy":0.0017,"dx":0.0017,"nx":28,"ny":28,"refTime":"2023-09-30T09:00:00:Z","depth":0,"parameterNumber":3,"parameterNumberName":"V-component_of_WINDS"},"data":[0,0,0,0,0,0,0,0,0,0,0,0,0,0,0,0,0,0,0,0,0,0,0,0,0,0,0,0,0,0,0,0,0,0,0,0,0,0,0,0,0,0,0,0,0,0,0,0,0,0,0,0,0,0,0,0,0,0,-1.5528,-1.5528,0,-1.556,-1.556,-1.556,-1.5578,-1.5578,-1.5578,-1.5578,-1.5608,-1.5609,-1.561,0,0,0,0,0,0,0,0,0,0,0,0,0,-1.548,-1.548,-1.5528,-1.5528,-1.5529,-1.556,-1.556,-1.556,-1.5578,-1.5578,-1.5578,-1.5578,-1.5608,-1.5609,-1.561,0,0,0,0,0,0,0,0,0,0,0,0,0,-1.5505,-1.5481,-1.5528,-1.5541,-1.5543,-1.5559,-1.556,-1.556,-1.5577,-1.5578,-1.5578,-1.5578,-1.5608,-1.5609,-1.561,-1.5616,0,0,-1.5613,-1.5614,0,0,0,0,0,0,0,0,-1.5503,-1.5507,-1.5539,-1.554,-1.5542,-1.5565,-1.5554,-1.5579,-1.5577,-1.5564,-1.5578,-1.5578,-1.5594,-1.5596,-1.5602,-1.5617,-1.5618,-1.5614,-1.5614,-1.5615,-1.5615,0,0,0,0,0,0,0,-1.5502,-1.5505,-1.554,-1.5539,-1.5541,-1.5544,-1.5548,-1.5559,-1.5578,-1.5565,-1.5567,-1.557,-1.5594,-1.56,-1.5602,-1.5619,-1.5614,-1.5615,-1.5615,-1.5616,-1.5639,-1.5639,0,0,0,0,0,0,-1.5498,-1.5504,-1.5539,-1.5541,-1.5522,-1.5545,-1.5549,-1.5557,-1.5578,-1.5581,-1.557,-1.5571,-1.5598,-1.5601,-1.5604,-1.5611,-1.5615,-1.5616,-1.5616,-1.5639,-1.5639,-1.5639,0,0,0,0,0,0,-1.5497,-1.5501,-1.5538,-1.5523,-1.5528,-1.5546,-1.5555,-1.5558,-1.5564,-1.5582,-1.5585,-1.5573,-1.5599,-1.5602,-1.5612,-1.5612,-1.5616,-1.5617,-1.5639,-1.5639,-1.5639,-1.5625,0,0,0,0,0,0,-1.5496,-1.5501,-1.5504,-1.5523,-1.5529,-1.5547,-1.5555,-1.5558,-1.5566,-1.5567,-1.5585,-1.5588,-1.5599,-1.561,-1.5613,-1.5614,-1.5618,-1.5639,-1.5639,-1.5639,-1.5626,-1.5625,-1.5624,0,0,0,0,0,-1.5494,-1.5499,-1.5504,-1.5508,-1.5533,-1.5547,-1.555,-1.5563,-1.5566,-1.5569,-1.558,-1.5588,-1.5611,-1.5611,-1.5615,-1.5615,-1.5639,-1.5639,-1.5639,-1.5626,-1.5625,-1.5624,0,0,0,0,0,0,-1.5479,-1.5502,-1.5508,-1.5519,-1.5531,-1.555,-1.5554,-1.5562,-1.5573,-1.5573,-1.5588,-1.5592,-1.56,-1.5609,-1.5608,-1.5621,-1.5626,-1.5626,-1.5615,-1.5614,-1.5613,-1.5611,-1.5619,0,0,0,0,0,-1.5477,-1.5487,-1.5506,-1.5515,-1.552,-1.5536,-1.5543,-1.5551,-1.5564,-1.5569,-1.5581,-1.5593,-1.5603,-1.5609,-1.5619,-1.5627,-1.563,-1.5629,-1.5628,-1.5627,-1.5627,-1.5631,-1.563,-1.5638,-1.5638,-1.5638,0,0,-1.5473,-1.5487,-1.5493,-1.5512,-1.5522,-1.5531,-1.554,-1.555,-1.5557,-1.557,-1.5581,-1.559,-1.5603,-1.5612,-1.5617,-1.562,-1.5626,-1.5627,-1.5626,-1.5627,-1.563,-1.563,-1.5629,-1.5638,-1.5638,-1.5638,0,0,-1.5471,-1.5483,-1.5491,-1.55,-1.5516,-1.5526,-1.5528,-1.5545,-1.5552,-1.5562,-1.5573,-1.558,-1.5597,-1.5606,-1.5613,-1.5612,-1.5619,-1.5615,-1.561,-1.5613,-1.5612,-1.5612,-1.5611,-1.561,-1.5615,-1.5615,-1.5615,0,-1.5464,-1.548,-1.5493,-1.5502,-1.551,-1.5523,-1.553,-1.5538,-1.5556,-1.5561,-1.5564,-1.5585,-1.5595,-1.5605,-1.5605,-1.561,-1.5612,-1.5613,-1.5611,-1.5611,-1.5611,-1.561,-1.5609,-1.5615,-1.5615,-1.5615,-1.5615,0,-1.547,-1.548,-1.5484,-1.5501,-1.5509,-1.5517,-1.5531,-1.5537,-1.5544,-1.5554,-1.5563,-1.5576,-1.5588,-1.5591,-1.5599,-1.5602,-1.5604,-1.5609,-1.5614,-1.5609,-1.5608,-1.5608,-1.5614,-1.5614,-1.5614,-1.5614,0,0,-1.5461,-1.5484,-1.5485,-1.5492,-1.5509,-1.5517,-1.5524,-1.5537,-1.5541,-1.5553,-1.5559,-1.5572,-1.5577,-1.5584,-1.5593,-1.5596,-1.5593,-1.56,-1.5601,-1.5598,-1.5596,-1.5592,-1.5591,-1.5597,-1.5597,-1.5598,-1.5595,0,-1.546,-1.5476,-1.5487,-1.5497,-1.5506,-1.5517,-1.5524,-1.5534,-1.5543,-1.5551,-1.556,-1.5569,-1.5575,-1.5579,-1.5583,-1.5592,-1.5592,-1.5593,-1.5602,-1.5603,-1.5598,-1.5591,-1.5587,-1.5583,-1.5594,-1.5594,-1.5594,0,-1.5463,-1.5473,-1.5484,-1.5499,-1.5503,-1.5509,-1.552,-1.5528,-1.5539,-1.5545,-1.5553,-1.5562,-1.5569,-1.5573,-1.5583,-1.5583,-1.5587,-1.5592,-1.5592,-1.5594,-1.5598,-1.5591,-1.5583,-1.5582,-1.5594,-1.5594,-1.5594,0,-1.5453,-1.5471,-1.5479,-1.5485,-1.5503,-1.5506,-1.5513,-1.5525,-1.5531,-1.5541,-1.5545,-1.5555,-1.556,-1.5568,-1.5578,-1.558,-1.5586,-1.5592,-1.559,-1.559,-1.5591,-1.5591,-1.5583,-1.5595,-1.5595,-1.5595,-1.5595,0,-1.5452,-1.5458,-1.5475,-1.548,-1.5487,-1.55,-1.5505,-1.5514,-1.5524,-1.553,-1.554,-1.5546,-1.5559,-1.5566,-1.5574,-1.558,-1.5583,-1.5587,-1.5589,-1.5586,-1.5585,-1.5589,-1.5589,-1.5595,-1.5595,-1.5595,-1.5595,0,-1.5443,-1.5455,-1.5465,-1.548,-1.5484,-1.5488,-1.5501,-1.5506,-1.5515,-1.5522,-1.5525,-1.5538,-1.5546,-1.5557,-1.5569,-1.5574,-1.5579,-1.5583,-1.5575,-1.5576,-1.5574,-1.5574,-1.5568,-1.5567,-1.558,-1.558,-1.558,0,-1.5442,-1.5447,-1.5462,-1.5467,-1.5474,-1.5482,-1.5488,-1.55,-1.5506,-1.5518,-1.5521,-1.553,-1.5538,-1.555,-1.5561,-1.5569,-1.5573,-1.557,-1.5574,-1.557,-1.5572,-1.5571,-1.5571,-1.5569,-1.5569,-1.5568,-1.5568,0,-1.5437,-1.5442,-1.5451,-1.5461,-1.5467,-1.5476,-1.5485,-1.5488,-1.5502,-1.5507,-1.5516,-1.5522,-1.5533,-1.5542,-1.5551,-1.5558,-1.5565,-1.5567,-1.5567,-1.5564,-1.5559,-1.556,-1.5572,-1.5567,-1.5567,-1.5567,-1.5567,-1.5567,-1.5431,-1.5435,-1.5447,-1.5455,-1.5463,-1.5471,-1.5476,-1.5484,-1.5492,-1.5502,-1.5508,-1.5516,-1.5526,-1.554,-1.5546,-1.5552,-1.5555,-1.5555,-1.5555,-1.5555,-1.5553,-1.5558,-1.5554,-1.5554,-1.5554,-1.5554,-1.5554,0,-1.5426,-1.5434,-1.5441,-1.5453,-1.546,-1.5466,-1.5475,-1.548,-1.5487,-1.5495,-1.5503,-1.5512,-1.5519,-1.553,-1.5538,-1.554,-1.5544,-1.5542,-1.5542,-1.5543,-1.5551,-1.555,-1.5539,-1.5539,-1.5539,-1.5539,-1.5539,-1.5539,-1.5425,-1.5432,-1.5438,-1.5448,-1.5455,-1.5463,-1.5468,-1.5474,-1.5481,-1.5491,-1.5497,-1.5504,-1.5513,-1.5522,-1.5529,-1.5531,-1.5534,-1.5531,-1.5534,-1.5541,-1.5543,-1.5544,-1.5543,-1.5531,-1.5531,-1.5526,-1.5526,-1.5526]}]]